This is the latest recevied weather packets stored in our database for station/object LU1MQF-13. If no packets are shown the sender has not sent any weather packets the latest 10 day(s).
| Time | Temp. | Humidity | Pressure | Rain* | Wind** | Luminosity | Snow |
|---|---|---|---|---|---|---|---|
| 1778140632 | 17.22° C | 30% | 936.1 hPa | - | - | - | - |
| 1778139732 | 17.22° C | 31% | 936 hPa | - | - | - | - |
| 1778138833 | 17.22° C | 31% | 935.6 hPa | - | - | - | - |
| 1778137932 | 17.22° C | 31% | 935.5 hPa | - | - | - | - |
| 1778137033 | 17.22° C | 31% | 935.1 hPa | - | - | - | - |
| 1778136133 | 17.22° C | 32% | 935.1 hPa | - | - | - | - |
| 1778135233 | 17.22° C | 31% | 935.4 hPa | - | - | - | - |
| 1778134332 | 17.78° C | 30% | 935.4 hPa | - | - | - | - |
| 1778133431 | 17.78° C | 30% | 935.3 hPa | - | - | - | - |
| 1778132532 | 17.78° C | 31% | 934.8 hPa | - | - | - | - |
| 1778131632 | 17.78° C | 32% | 934.4 hPa | - | - | - | - |
| 1778130732 | 17.78° C | 33% | 934.3 hPa | - | - | - | - |
| 1778129832 | 17.78° C | 33% | 933.9 hPa | - | - | - | - |
| 1778128932 | 17.78° C | 34% | 933.6 hPa | - | - | - | - |
| 1778128032 | 17.78° C | 35% | 933.1 hPa | - | - | - | - |
| 1778127132 | 17.78° C | 37% | 932.9 hPa | - | - | - | - |
| 1778126231 | 18.89° C | 40% | 932.7 hPa | - | - | - | - |
| 1778125331 | 17.78° C | 34% | 932 hPa | - | - | - | - |
| 1778124432 | 17.78° C | 34% | 932.1 hPa | - | - | - | - |
| 1778123531 | 17.22° C | 35% | 932.1 hPa | - | - | - | - |
| 1778122632 | 17.22° C | 36% | 932 hPa | - | - | - | - |
| 1778121732 | 17.78° C | 37% | 931.9 hPa | - | - | - | - |
| 1778120832 | 17.78° C | 39% | 931.9 hPa | - | - | - | - |
| 1778119932 | 17.78° C | 41% | 932.1 hPa | - | - | - | - |
| 1778119032 | 17.78° C | 46% | 932.4 hPa | - | - | - | - |
* Rain since midnight (hover to see other rain measurements)
** Current wind speed in m/s (hover to see current wind gust speed)